Wind_Speed
74 72 70 67 64 59 57 60 54 52 49 48 45 43 44 39 35 36 36 33 34 36 36 34 32 31 29 28 27 29 29 31 33 29 28 28 24 18 15 11 9 9 9
76 74 71 67 64 61 58 56 54 50 47 46 44 43 37 34 33 35 35 34 35 36 35 32 31 31 29 28 29 30 30 31 32 26 27 22 17 15 9 9 9 8 10
78 76 73 69 64 60 56 54 52 48 45 44 41 38 35 33 34 35 35 33 35 35 32 30 31 30 28 29 29 30 30 29 27 23 19 15 12 10 7 8 7 9 11
82 78 74 70 64 57 56 54 51 49 45 41 38 36 34 33 35 36 34 34 36 33 31 30 30 28 28 29 29 30 28 25 23 23 15 9 9 7 6 9 8 6 8
81 80 74 70 64 58 55 53 53 49 44 41 37 35 34 33 35 37 35 36 35 32 30 29 26 27 27 28 28 25 22 22 23 18 15 10 8 10 9 9 8 6 6
69 78 71 68 64 58 54 51 49 45 41 39 39 35 33 33 33 34 35 35 33 30 29 25 27 26 27 26 23 22 21 20 18 16 17 15 14 13 11 11 15 11 9
56 72 70 67 63 59 53 48 43 42 41 40 38 34 33 31 31 33 35 33 29 29 26 26 25 26 25 23 23 22 22 20 17 17 14 14 12 11 13 8 14 12 9
49 65 66 65 63 58 52 45 43 43 41 38 35 32 31 31 32 35 31 31 29 27 27 24 25 25 22 23 22 23 23 22 18 17 13 12 8 9 13 7 9 10 10
51 61 64 63 60 55 51 46 45 45 41 36 33 31 32 32 34 31 30 29 27 26 25 23 25 23 22 22 20 22 21 19 18 17 14 14 10 10 12 11 11 10 10
50 59 62 58 56 53 50 46 45 42 38 35 31 30 32 32 31 29 29 26 26 26 24 24 23 21 23 21 21 19 16 17 17 17 14 12 11 10 9 9 11 10 8
52 58 57 55 52 51 49 46 43 39 35 32 31 31 30 28 28 27 25 24 24 24 23 23 21 22 19 19 17 17 19 17 17 16 15 11 12 11 8 8 8 9 10
54 57 54 51 48 48 46 44 40 38 35 31 30 28 27 26 26 25 23 22 23 23 23 23 22 19 17 15 13 13 18 25 19 16 15 13 12 12 10 8 9 9 8
52 52 50 47 45 43 43 39 37 36 33 32 29 29 27 24 22 22 21 21 21 21 22 20 19 17 15 14 10 9 8 21 21 16 15 13 13 11 11 10 11 10 11
50 47 45 44 43 43 39 36 34 34 33 33 30 25 23 21 20 19 19 19 19 19 19 18 14 12 12 13 10 10 10 13 18 14 13 13 12 14 14 13 12 12 12
46 45 44 43 42 41 37 39 40 37 29 25 25 22 21 19 17 17 16 16 17 16 16 14 12 12 12 12 11 10 11 12 10 10 13 14 13 12 13 14 14 14 14
45 43 40 39 36 35 29 32 32 26 23 22 19 18 17 15 14 14 15 15 15 15 13 10 10 12 12 11 12 11 12 13 12 14 14 13 11 10 11 12 13 14 15
39 38 37 41 36 32 29 24 23 23 23 20 18 15 14 14 14 15 14 13 13 12 11 9 10 11 12 12 11 12 13 13 14 14 13 11 11 11 12 11 11 11 15
38 34 34 38 29 25 28 25 27 25 21 17 15 15 14 14 14 13 12 11 11 11 10 10 11 13 14 13 13 12 13 13 13 12 12 11 11 12 13 12 11 10 8
38 36 34 24 26 26 25 25 21 17 15 17 16 15 15 15 13 11 12 12 12 13 15 13 12 13 14 14 13 13 12 11 11 10 10 9 10 11 11 12 14 15 11
31 34 29 26 26 25 24 20 18 18 19 17 19 17 15 12 10 11 12 14 15 16 15 15 13 12 12 12 12 11 10 10 9 9 9 10 10 11 11 11 13 13 12
29 29 28 27 25 23 23 23 23 21 18 22 21 16 14 12 12 12 14 15 15 16 16 15 13 13 12 11 11 11 11 10 9 9 9 9 10 10 10 9 10 9 10
27 29 28 27 26 26 25 26 25 22 21 23 19 16 16 14 12 11 13 14 13 13 15 14 12 11 11 11 11 11 10 9 9 8 8 8 8 7 7 6 7 9 11
29 27 26 25 25 26 27 26 24 21 20 19 19 19 17 16 13 10 9 11 13 13 12 12 12 11 11 10 10 10 9 8 7 7 6 6 6 7 8 9 12 14 16
24 25 25 25 26 26 25 23 22 20 18 17 18 19 17 16 15 13 11 11 11 11 12 11 11 10 10 10 9 8 8 7 8 8 8 9 10 11 11 12 15 18 19
25 25 26 26 23 23 22 22 19 16 15 13 18 17 17 14 13 13 12 12 11 11 11 11 11 11 10 8 8 8 8 9 9 9 9 10 11 12 14 17 20 23 26
24 23 24 24 25 22 19 18 18 17 15 15 16 15 16 16 15 15 15 15 14 13 12 11 11 11 11 10 9 8 8 8 9 11 14 16 18 20 23 25 27 29 29
Wind_Direction
239 240 240 239 242 243 244 246 248 251 251 255 258 265 266 269 273 269 274 279 278 281 282 279 283 285 289 288 290 295 296 297 297 301 302 304 304 295 291 274 250 232 231
237 238 240 238 237 240 242 244 248 250 252 254 259 263 268 269 269 269 271 274 277 280 278 281 282 286 285 285 291 293 294 293 294 300 302 300 298 292 282 256 236 224 213
231 233 236 238 237 236 239 242 245 247 250 252 256 263 266 265 263 266 267 272 277 277 277 279 281 283 280 285 289 290 291 289 289 294 291 294 292 295 253 226 223 210 213
229 228 230 233 236 234 234 237 242 245 247 251 257 263 264 262 263 263 266 270 274 274 274 275 279 277 282 288 289 290 289 285 288 289 272 291 275 279 250 220 208 204 208
227 224 224 227 231 232 232 233 238 243 247 254 259 262 262 263 262 262 262 267 271 269 271 274 272 279 285 288 287 287 283 286 287 269 252 259 287 260 251 225 207 211 206
225 221 220 222 226 228 230 231 235 242 247 251 254 258 260 260 259 258 260 267 264 268 272 268 275 282 286 284 279 280 277 285 279 258 246 258 279 260 242 248 220 222 211
224 216 214 216 220 224 226 228 232 239 243 247 252 255 255 258 256 256 262 264 265 268 266 271 279 285 282 277 279 276 270 276 264 251 255 260 273 249 221 252 214 217 231
215 211 209 211 216 219 222 225 228 235 240 245 250 251 252 254 252 256 260 260 264 263 264 273 280 280 278 277 276 275 270 258 251 243 247 240 254 225 202 213 211 222 232
206 204 204 207 212 215 219 221 225 232 238 243 247 249 247 249 252 257 255 259 260 258 263 272 280 278 276 276 277 276 261 242 237 234 235 238 248 243 215 211 209 221 233
197 197 200 203 208 211 215 218 222 229 233 238 241 242 245 248 252 251 255 256 252 257 264 274 280 274 276 274 271 263 251 234 226 228 235 236 231 237 215 212 214 215 225
191 191 194 198 202 206 210 213 217 224 229 233 235 238 242 247 249 255 252 250 256 261 268 277 270 271 265 263 256 263 225 222 223 224 229 230 223 216 216 216 224 223 229
183 185 189 193 198 203 206 211 218 222 227 224 231 232 235 242 248 246 250 253 256 264 270 269 266 259 254 248 247 246 226 214 215 215 220 226 222 213 205 217 223 227 227
176 180 184 189 193 197 203 208 214 218 215 222 222 232 238 243 240 250 251 255 264 265 263 261 259 252 245 241 238 246 239 211 200 209 214 217 218 218 215 219 231 233 229
169 175 181 185 188 193 198 200 202 203 210 226 225 231 236 235 245 247 256 257 258 258 258 256 241 242 233 231 222 207 216 195 188 203 213 216 219 222 221 228 236 243 242
170 174 180 183 186 191 197 193 196 198 209 214 220 224 228 235 244 248 244 249 252 253 247 235 237 230 225 221 213 206 196 195 196 204 201 206 214 219 224 230 237 247 250
169 171 174 181 189 187 193 200 194 199 207 214 215 220 225 234 230 235 234 238 241 240 229 222 216 212 217 210 204 203 200 198 201 197 199 207 213 221 231 238 248 256 259
163 172 183 191 177 176 186 179 182 196 200 204 212 220 214 212 218 220 228 230 222 214 214 205 199 205 199 196 195 196 196 198 201 198 202 214 223 227 234 232 241 256 267
165 167 171 153 161 167 174 183 189 189 190 198 200 197 200 199 210 219 219 205 192 191 194 186 193 196 190 186 187 190 192 193 198 203 208 213 220 229 237 232 232 266 298
159 164 167 175 171 176 179 186 187 188 191 186 182 181 183 199 211 209 190 185 179 183 184 187 185 187 187 187 186 190 192 194 199 205 212 217 222 236 247 245 258 276 280
160 165 164 167 173 178 181 178 170 172 170 170 168 175 185 190 185 178 181 177 179 183 182 187 186 183 183 186 185 186 187 192 198 207 217 232 241 250 255 258 264 269 267
153 156 165 172 173 175 169 167 167 165 168 172 172 173 174 174 166 169 171 169 174 177 178 180 185 189 194 196 200 205 208 214 219 227 239 253 254 250 252 258 261 260 259
161 168 170 169 164 163 166 167 166 167 171 176 179 175 174 170 167 163 169 172 169 169 173 184 189 191 195 197 202 210 213 219 226 236 242 244 234 230 240 250 256 253 252
160 160 159 159 163 164 166 167 172 175 178 185 185 179 181 182 179 168 161 164 168 168 167 170 172 175 172 170 175 181 190 192 199 213 214 221 226 235 247 258 264 269 272
155 161 164 164 162 160 165 171 179 179 185 188 185 182 178 179 183 180 175 170 165 170 171 171 169 170 175 180 183 186 192 197 202 215 228 241 254 264 266 271 275 281 280
157 154 153 156 159 163 168 175 175 177 179 181 181 180 181 177 178 168 168 170 174 175 173 175 181 188 192 195 206 212 224 238 246 257 266 268 268 267 270 278 283 286 286
159 156 156 160 164 164 163 164 169 167 167 160 162 166 170 173 177 180 180 179 179 180 184 187 193 201 205 206 210 219 230 241 254 263 269 271 273 276 279 281 278 289 294
Height
5680 5689 5700 5708 5716 5723 5730 5738 5745 5750 5755 5760 5763 5765 5768 5770 5771 5772 5771 5771 5770 5769 5767 5765 5764 5762 5759 5757 5756 5755 5752 5749 5746 5743 5739 5736 5732 5729 5727 5727 5727 5727 5728
5662 5673 5682 5694 5703 5712 5721 5727 5733 5739 5744 5748 5751 5756 5758 5761 5761 5762 5762 5763 5762 5760 5759 5758 5756 5755 5752 5751 5749 5748 5745 5743 5740 5737 5735 5732 5729 5727 5725 5726 5727 5727 5727
5642 5654 5666 5678 5689 5700 5709 5715 5721 5727 5732 5736 5743 5747 5750 5751 5753 5754 5754 5754 5754 5752 5751 5750 5749 5748 5746 5745 5743 5741 5739 5737 5734 5733 5731 5729 5727 5724 5724 5726 5726 5726 5727
5623 5635 5649 5662 5675 5688 5696 5704 5710 5715 5721 5728 5733 5737 5740 5743 5744 5745 5746 5746 5745 5744 5744 5743 5742 5741 5739 5737 5736 5734 5732 5730 5729 5728 5728 5727 5725 5725 5725 5725 5726 5726 5726
5600 5617 5634 5649 5661 5673 5683 5693 5700 5706 5713 5718 5723 5727 5732 5734 5736 5737 5737 5737 5737 5737 5737 5736 5735 5734 5732 5730 5729 5728 5727 5725 5724 5724 5725 5724 5723 5723 5724 5725 5725 5725 5726
5581 5601 5622 5637 5649 5661 5672 5682 5690 5697 5704 5709 5714 5721 5724 5726 5729 5728 5729 5729 5729 5729 5729 5730 5728 5727 5725 5724 5723 5722 5722 5721 5721 5720 5722 5721 5721 5720 5722 5723 5723 5724 5725
5569 5586 5606 5623 5638 5650 5661 5672 5682 5689 5695 5701 5707 5713 5716 5718 5719 5721 5721 5721 5722 5722 5723 5722 5721 5720 5718 5717 5717 5717 5716 5717 5717 5717 5718 5718 5718 5718 5720 5720 5721 5723 5724
5560 5576 5596 5612 5627 5639 5652 5664 5673 5680 5687 5694 5700 5704 5707 5709 5711 5712 5714 5714 5715 5716 5716 5716 5715 5713 5712 5710 5711 5710 5710 5712 5712 5713 5715 5716 5716 5716 5718 5719 5720 5722 5723
5550 5568 5586 5604 5619 5634 5645 5657 5666 5673 5680 5687 5691 5695 5699 5701 5704 5706 5707 5708 5709 5710 5709 5709 5708 5706 5705 5705 5705 5705 5705 5706 5708 5710 5711 5713 5714 5715 5715 5716 5718 5720 5722
5543 5562 5580 5598 5613 5627 5639 5650 5658 5666 5673 5679 5683 5688 5691 5694 5697 5699 5700 5701 5702 5703 5703 5702 5702 5700 5700 5700 5700 5700 5701 5702 5704 5707 5709 5711 5712 5714 5715 5716 5717 5719 5720
5541 5559 5577 5591 5607 5620 5631 5641 5651 5659 5666 5672 5677 5681 5685 5688 5690 5692 5693 5695 5695 5696 5696 5696 5696 5696 5696 5696 5696 5695 5697 5699 5701 5704 5707 5708 5710 5712 5714 5715 5716 5717 5718
5540 5557 5574 5589 5603 5614 5626 5636 5645 5654 5660 5666 5671 5675 5679 5682 5684 5686 5688 5688 5689 5690 5690 5690 5690 5691 5691 5691 5692 5691 5691 5693 5697 5701 5704 5706 5708 5710 5712 5713 5715 5715 5716
5543 5559 5574 5588 5600 5612 5621 5631 5641 5649 5655 5660 5665 5670 5674 5676 5678 5680 5681 5682 5683 5684 5683 5684 5684 5686 5686 5687 5688 5689 5688 5690 5694 5698 5701 5704 5705 5707 5709 5710 5712 5713 5713
5548 5563 5575 5588 5598 5608 5618 5628 5636 5643 5650 5656 5661 5664 5667 5670 5673 5674 5675 5677 5678 5678 5678 5679 5680 5681 5682 5684 5685 5687 5688 5688 5692 5697 5699 5702 5703 5705 5706 5708 5709 5711 5712
5555 5565 5576 5588 5598 5606 5614 5622 5629 5637 5646 5652 5657 5660 5663 5666 5668 5669 5671 5672 5673 5673 5673 5675 5676 5678 5680 5681 5683 5685 5688 5690 5693 5695 5698 5699 5701 5703 5704 5706 5707 5708 5709
5557 5568 5579 5590 5599 5605 5612 5621 5630 5638 5644 5649 5653 5656 5658 5661 5663 5665 5667 5668 5668 5669 5670 5672 5673 5676 5678 5680 5683 5685 5687 5689 5692 5694 5696 5697 5699 5701 5702 5703 5704 5705 5706
5564 5572 5580 5587 5597 5606 5616 5624 5630 5637 5641 5645 5649 5652 5654 5657 5659 5661 5662 5663 5665 5666 5668 5670 5673 5675 5677 5680 5682 5684 5686 5688 5690 5693 5695 5697 5698 5699 5700 5701 5702 5702 5702
5566 5575 5581 5583 5599 5608 5617 5623 5628 5633 5637 5642 5645 5648 5651 5655 5657 5658 5660 5662 5663 5664 5667 5670 5672 5674 5676 5679 5681 5684 5686 5688 5690 5692 5693 5694 5695 5696 5697 5698 5699 5700 5699
5572 5580 5587 5594 5602 5610 5616 5622 5627 5632 5636 5639 5643 5647 5651 5654 5655 5656 5658 5659 5661 5664 5666 5669 5671 5674 5676 5678 5680 5683 5685 5686 5688 5689 5691 5692 5693 5694 5695 5696 5697 5697 5697
5577 5585 5592 5599 5606 5612 5617 5622 5626 5630 5635 5638 5643 5648 5651 5653 5654 5655 5656 5658 5661 5664 5666 5669 5672 5674 5676 5678 5680 5682 5684 5685 5687 5688 5689 5690 5692 5693 5693 5693 5694 5693 5693
5581 5587 5595 5601 5606 5612 5617 5621 5625 5630 5634 5639 5645 5648 5650 5652 5654 5656 5658 5659 5662 5664 5667 5669 5672 5674 5676 5678 5680 5682 5683 5684 5686 5687 5688 5689 5690 5691 5691 5691 5691 5691 5690
5587 5593 5597 5602 5608 5612 5617 5622 5627 5631 5636 5641 5645 5648 5650 5652 5655 5657 5659 5661 5663 5665 5667 5670 5672 5673 5675 5677 5679 5680 5682 5683 5685 5686 5686 5687 5688 5688 5688 5689 5689 5689 5688
5590 5595 5599 5604 5608 5614 5619 5623 5628 5632 5637 5641 5644 5647 5651 5653 5656 5658 5660 5662 5664 5666 5668 5671 5672 5674 5675 5677 5678 5680 5681 5683 5684 5685 5686 5686 5686 5687 5687 5687 5686 5686 5685
5593 5597 5602 5607 5612 5616 5620 5625 5629 5634 5637 5641 5644 5648 5651 5653 5656 5658 5661 5663 5665 5667 5669 5670 5672 5674 5675 5677 5678 5680 5681 5681 5682 5683 5684 5684 5685 5685 5685 5684 5683 5683 5681
5598 5601 5605 5609 5614 5619 5623 5627 5631 5635 5638 5641 5645 5647 5651 5653 5656 5659 5661 5663 5665 5667 5669 5670 5672 5674 5675 5677 5678 5679 5680 5680 5681 5681 5682 5682 5681 5681 5680 5678 5676 5675 5673
5601 5605 5609 5613 5617 5622 5626 5630 5633 5637 5640 5643 5645 5648 5651 5654 5657 5659 5661 5663 5664 5666 5668 5670 5672 5673 5674 5675 5676 5677 5677 5678 5678 5678 5677 5677 5675 5674 5673 5671 5669 5668 5665